Wetbulb
55.15 55.83 57.05 58.03 57.77 59.55 63.99 68.88 69.25 69.80 69.44 67.20 65.21 64.55 63.89 64.82 65.48 66.37 67.15 67.23 65.80 66.46 66.76 64.93 64.91 65.35 64.88 65.68 66.43 66.49 66.22 66.50 66.89 65.98 66.80 67.03 67.78 67.64 66.54 67.75 67.83 67.96 68.14
55.37 55.98 57.23 58.57 60.29 59.51 59.39 62.13 67.74 69.64 69.58 68.60 67.11 66.76 66.40 66.84 66.76 66.97 67.15 66.74 66.21 65.14 65.11 64.89 64.91 64.97 64.53 65.24 66.22 66.77 66.79 67.25 68.23 66.32 65.94 63.01 65.92 67.65 67.41 67.22 66.54 66.76 67.44
53.62 54.89 55.73 57.44 60.94 63.18 62.10 59.07 60.95 66.61 69.28 69.20 68.60 68.01 68.64 67.77 66.52 66.80 66.58 66.72 67.06 66.44 66.20 65.07 65.27 65.41 65.38 65.36 66.21 67.22 67.19 66.87 66.67 66.47 65.29 61.19 62.25 64.93 68.02 67.78 67.47 67.23 66.74
53.75 54.69 55.48 55.70 57.03 62.18 62.49 60.39 58.85 60.75 67.81 69.37 68.36 67.11 66.14 65.79 67.43 67.53 67.71 67.34 68.02 67.84 66.77 66.04 66.73 66.65 66.21 66.27 67.76 68.98 67.26 66.76 66.36 65.91 66.16 66.69 66.71 63.33 62.94 67.21 67.52 68.22 66.59
54.01 56.08 57.43 59.49 59.84 61.09 62.26 61.95 61.00 60.70 60.70 68.58 68.50 67.40 67.01 67.77 69.55 69.58 68.28 68.21 68.33 68.91 68.40 69.26 66.38 67.53 68.05 68.41 69.09 69.29 67.78 67.52 66.85 66.22 65.84 65.08 65.60 65.53 61.84 58.90 63.17 67.10 67.66
53.46 57.16 59.13 60.44 60.60 61.20 61.85 63.55 62.77 63.35 63.34 65.47 69.01 68.36 67.43 68.05 67.86 68.66 68.86 68.43 69.33 68.67 69.49 68.51 68.57 68.66 68.84 68.76 68.83 68.49 67.23 66.42 66.69 66.69 66.20 65.17 63.73 64.54 62.52 61.34 62.17 62.91 64.92
52.26 55.79 55.81 57.40 59.57 60.29 61.63 63.04 64.14 64.13 66.68 67.27 68.39 69.05 68.40 68.53 68.46 69.18 69.30 68.39 67.80 67.27 67.68 67.35 64.77 62.16 62.08 62.41 61.51 60.23 60.63 60.64 59.81 58.73 58.92 60.40 59.16 58.85 61.87 60.86 59.72 60.24 62.26
47.94 49.63 52.63 54.10 56.77 58.88 59.72 59.89 62.80 65.16 67.12 67.93 68.51 69.07 68.92 69.31 69.54 69.85 69.09 64.58 59.36 56.46 56.76 56.28 55.76 55.34 56.58 57.62 56.84 57.59 58.00 57.40 56.54 56.15 55.54 57.14 56.01 56.50 56.43 56.32 56.08 55.46 57.82
46.65 46.01 48.29 51.38 53.05 58.34 58.30 57.65 58.89 61.10 61.18 62.32 62.57 62.07 62.79 62.09 61.26 60.38 57.42 54.30 53.91 52.05 50.27 51.45 52.16 52.13 52.60 53.36 53.09 52.91 52.09 51.26 51.21 51.68 51.45 49.67 49.34 50.46 51.63 52.90 53.34 52.03 51.15
45.90 45.42 46.52 49.45 52.16 54.78 57.81 57.03 57.23 57.00 56.74 56.25 55.88 55.20 55.12 54.33 53.95 52.74 50.89 52.48 51.44 50.62 48.05 47.65 48.80 49.39 49.72 50.54 50.52 49.72 50.07 49.33 48.56 48.16 47.88 46.85 46.96 46.44 46.65 47.47 48.49 50.83 48.82
45.19 44.90 45.57 47.70 50.23 52.23 57.07 55.54 54.99 55.20 55.13 55.42 54.95 53.50 51.70 50.94 50.14 49.22 49.92 49.04 48.81 47.62 45.68 45.84 45.96 46.70 47.19 47.90 47.97 47.68 47.90 46.96 45.87 46.22 46.18 45.16 45.86 44.68 44.85 45.05 44.42 43.55 44.88
44.77 44.61 44.94 46.25 48.38 50.70 56.16 54.20 53.94 53.04 53.47 53.57 52.90 53.02 51.94 49.96 48.91 47.09 45.88 45.90 45.35 45.62 44.57 44.65 44.56 44.95 44.92 45.11 45.16 45.10 45.18 45.05 42.84 42.17 42.47 42.05 43.87 44.12 44.00 43.81 42.67 42.03 42.94
43.34 43.21 44.23 44.78 46.73 50.24 55.96 54.03 54.12 52.99 53.62 51.98 50.76 49.42 47.81 46.19 45.56 44.66 43.81 43.88 44.10 44.10 44.35 43.88 43.21 43.08 42.91 42.87 43.19 43.30 43.36 43.20 41.97 42.05 41.33 41.21 42.13 41.77 42.26 41.94 41.88 41.07 41.18
41.94 42.43 43.38 44.53 47.00 49.88 53.56 53.86 52.62 52.55 51.52 49.57 47.92 46.38 45.26 44.35 43.89 43.63 42.64 42.70 42.65 41.35 40.54 40.35 40.53 40.54 40.87 40.65 42.20 42.21 41.79 42.48 42.53 42.24 41.70 41.35 40.01 38.92 38.60 39.75 40.08 39.54 39.31
40.73 41.53 42.75 44.46 46.62 49.42 51.75 52.57 52.10 51.83 50.98 47.99 46.47 45.11 44.37 44.29 43.65 43.02 42.41 42.04 41.07 40.45 40.02 38.46 38.04 38.53 37.70 36.94 38.99 41.07 40.64 40.12 39.61 39.03 38.78 39.26 39.42 38.45 38.04 37.73 37.39 37.38 36.82
40.44 41.75 43.12 43.87 46.05 48.54 50.62 51.34 49.71 49.05 48.11 45.62 44.26 44.50 43.73 43.45 43.14 42.74 42.33 41.68 40.73 39.83 39.40 38.18 36.80 36.55 35.04 34.69 35.44 36.82 36.71 36.16 35.60 35.34 36.01 37.08 36.94 37.74 37.38 36.62 36.57 36.71 36.86
40.80 41.86 43.09 44.42 46.37 49.67 51.52 50.16 48.08 46.54 44.85 43.74 43.05 42.68 42.51 41.68 41.50 40.91 40.18 39.19 37.92 38.42 37.64 36.72 35.79 34.86 34.37 34.09 33.76 34.52 35.48 34.59 34.82 34.78 34.86 34.74 35.44 36.53 36.63 35.72 35.71 35.86 36.18
41.48 42.90 44.15 45.00 47.31 48.50 48.19 47.86 46.56 45.14 43.69 42.73 41.90 40.97 39.93 38.71 38.43 37.51 36.81 36.28 35.99 34.90 35.02 35.31 35.46 34.09 33.21 33.32 33.12 33.46 35.14 34.89 34.78 35.29 35.55 35.82 35.41 35.23 34.63 34.75 34.99 35.92 36.64
43.35 44.33 45.74 45.88 46.79 46.44 45.91 45.05 43.75 42.79 41.24 39.83 38.87 38.28 37.16 35.73 34.92 34.47 34.37 34.50 34.39 33.63 33.71 33.94 33.62 32.50 31.48 31.35 30.86 32.06 32.48 32.34 32.96 34.26 35.07 34.68 34.68 32.98 33.02 33.16 33.39 34.06 35.35
44.06 44.61 45.11 45.56 45.43 45.20 43.27 40.54 39.06 37.87 36.27 36.08 35.62 35.51 34.39 33.69 33.00 32.94 32.90 33.83 33.42 32.33 32.28 29.90 29.64 29.06 29.56 29.06 29.17 29.43 30.36 28.89 29.50 31.20 31.93 31.03 30.95 29.63 30.77 32.51 32.88 31.70 33.32
43.87 44.64 44.16 42.65 43.81 42.87 40.32 37.01 35.47 34.17 35.41 35.38 35.26 34.99 34.22 33.75 33.55 33.36 32.73 31.84 30.69 30.13 29.14 27.91 28.06 27.59 27.34 28.06 27.74 27.89 27.85 26.89 27.43 28.04 27.90 28.84 27.97 28.51 28.68 29.10 32.35 31.84 32.98
43.33 42.30 41.43 40.20 40.33 39.62 37.00 34.49 32.61 34.58 34.43 33.54 32.58 31.70 31.64 32.08 31.75 29.82 29.04 28.76 28.31 27.11 25.89 26.00 26.10 26.70 27.16 26.49 26.48 26.51 26.04 25.97 26.06 25.74 27.04 27.67 26.74 26.73 26.48 27.35 26.43 27.17 29.01
42.15 40.61 39.36 37.41 36.63 36.39 35.48 32.64 33.01 33.87 32.49 31.33 30.06 30.09 30.82 29.99 29.01 27.87 26.52 25.20 26.03 25.23 24.58 23.59 23.66 24.48 26.03 26.93 25.74 25.56 24.99 24.82 25.27 25.39 24.77 24.55 24.65 25.17 26.20 25.58 26.07 26.86 28.76
40.97 39.67 36.32 33.39 32.28 33.47 32.68 32.12 31.94 31.94 31.19 29.59 29.35 29.66 28.77 27.61 26.53 26.72 25.91 24.76 25.16 23.47 23.00 22.96 22.50 23.68 24.55 24.91 25.43 25.30 25.45 24.20 24.61 22.67 24.75 23.22 23.71 23.69 24.19 25.49 27.39 27.71 27.13
37.23 36.03 33.24 31.53 30.86 31.69 31.28 31.76 31.58 30.98 29.07 28.81 28.04 26.91 26.61 25.64 24.92 25.09 25.24 25.23 25.00 23.92 22.37 22.26 22.31 21.49 21.67 22.95 24.01 23.31 22.51 22.62 21.07 21.36 22.47 22.02 22.13 21.66 22.32 22.98 23.85 24.98 25.07
34.38 32.82 31.70 30.50 29.66 29.56 29.21 29.84 30.40 29.64 27.97 26.59 25.88 24.87 24.62 24.20 24.46 23.51 22.45 24.08 24.10 23.31 22.45 21.97 22.05 23.16 22.51 22.49 22.53 21.83 20.63 20.23 19.12 20.58 19.04 18.75 18.71 18.64 18.96 19.79 20.44 21.95 22.14
MSLP
1005.91 1005.83 1005.52 1005.26 1005.11 1004.60 1004.36 1004.04 1004.17 1003.92 1005.03 1005.52 1005.77 1006.15 1006.11 1006.31 1006.93 1007.26 1007.63 1008.42 1009.16 1009.83 1010.47 1010.95 1011.16 1011.89 1012.34 1012.48 1012.75 1012.88 1012.81 1012.63 1012.84 1013.06 1012.24 1011.82 1011.60 1011.27 1011.29 1011.27 1011.05 1010.92 1010.85
1006.24 1005.94 1005.76 1005.59 1005.27 1004.89 1004.38 1003.81 1003.16 1003.01 1003.27 1003.61 1003.83 1004.53 1004.72 1005.04 1005.40 1006.23 1006.61 1007.08 1007.98 1009.08 1009.89 1010.56 1010.92 1011.54 1012.02 1012.27 1012.21 1012.27 1011.81 1011.73 1012.02 1012.18 1011.91 1011.17 1010.61 1010.05 1010.22 1010.29 1010.21 1010.19 1010.19
1007.51 1006.65 1006.08 1005.72 1005.28 1004.60 1004.17 1003.53 1002.70 1002.06 1001.99 1002.31 1003.28 1003.95 1004.39 1004.74 1004.72 1004.75 1005.31 1006.20 1007.23 1008.13 1008.72 1009.02 1008.66 1009.37 1010.43 1011.30 1011.80 1011.39 1010.89 1010.80 1011.49 1011.75 1011.53 1011.29 1010.40 1009.86 1009.18 1009.49 1009.60 1009.63 1009.72
1008.11 1007.45 1006.55 1005.72 1005.27 1004.81 1004.35 1003.24 1002.45 1001.78 1001.23 1001.68 1001.98 1002.28 1002.38 1002.82 1002.72 1003.47 1004.43 1005.38 1006.28 1006.93 1007.78 1007.73 1007.62 1008.21 1009.18 1009.56 1010.49 1010.63 1010.31 1010.48 1010.69 1011.22 1010.92 1010.66 1010.52 1010.14 1008.99 1008.57 1009.17 1009.32 1009.23
1009.11 1008.24 1007.45 1006.64 1005.75 1005.14 1004.43 1003.43 1002.13 1001.73 1001.35 1000.85 1001.02 1001.50 1001.72 1001.67 1002.65 1003.32 1003.84 1004.68 1005.58 1005.70 1006.19 1006.46 1007.40 1007.40 1008.89 1009.20 1009.36 1009.36 1009.69 1009.71 1010.05 1010.25 1010.34 1010.52 1010.53 1010.47 1010.39 1009.59 1008.84 1008.47 1008.41
1009.66 1008.63 1007.97 1006.97 1006.02 1005.30 1004.38 1003.53 1002.38 1001.23 1000.91 1000.61 1000.79 1001.05 1001.36 1001.77 1002.66 1003.14 1003.65 1004.20 1004.53 1005.01 1005.46 1006.08 1006.83 1007.27 1008.06 1008.23 1008.28 1008.62 1009.00 1009.35 1009.58 1009.89 1010.08 1010.17 1010.21 1009.94 1010.15 1009.83 1009.27 1008.87 1008.22
1010.65 1009.60 1008.90 1007.91 1007.04 1006.04 1005.12 1004.12 1002.98 1001.73 1000.68 1000.50 1000.86 1001.27 1001.72 1002.01 1002.56 1003.06 1003.14 1003.79 1003.98 1004.33 1004.99 1005.65 1006.60 1007.26 1007.59 1007.87 1008.20 1008.78 1009.46 1009.82 1010.08 1010.46 1010.57 1010.45 1010.44 1010.64 1010.37 1010.17 1009.67 1009.17 1008.56
1011.40 1010.69 1009.90 1008.98 1008.10 1007.00 1006.00 1005.32 1003.87 1002.83 1001.87 1001.05 1001.65 1001.92 1002.14 1002.35 1002.68 1003.10 1003.57 1004.40 1005.43 1006.66 1007.62 1006.73 1007.01 1007.82 1008.09 1008.12 1008.45 1009.07 1009.88 1010.40 1010.88 1011.18 1011.07 1010.79 1011.05 1011.27 1011.33 1010.96 1010.58 1009.71 1008.97
1011.94 1011.27 1010.31 1009.57 1008.66 1007.83 1007.18 1006.25 1005.28 1004.21 1003.22 1002.79 1002.55 1002.96 1003.06 1003.27 1003.62 1004.23 1005.06 1005.78 1006.65 1007.40 1007.90 1010.45 1007.02 1009.17 1008.84 1010.00 1009.04 1009.53 1010.69 1011.12 1011.69 1011.94 1012.05 1012.10 1012.26 1012.25 1012.18 1011.87 1011.47 1011.04 1009.76
1012.14 1011.81 1011.07 1010.18 1009.22 1008.36 1007.70 1006.96 1006.26 1005.71 1005.14 1004.17 1004.09 1004.13 1004.77 1005.04 1005.54 1006.02 1006.50 1007.30 1007.99 1007.87 1007.04 1008.62 1010.93 1010.77 1009.81 1009.60 1010.50 1010.86 1010.94 1011.43 1012.06 1012.74 1012.97 1013.00 1013.17 1013.10 1012.86 1012.71 1012.37 1011.82 1011.34
1012.84 1012.33 1011.50 1010.84 1009.95 1009.13 1008.13 1007.67 1007.19 1006.65 1006.32 1005.92 1005.57 1004.81 1005.59 1006.15 1006.95 1007.64 1008.11 1008.78 1009.14 1008.27 1008.82 1009.97 1011.35 1011.16 1010.12 1010.52 1011.69 1011.67 1011.48 1012.13 1012.93 1013.32 1013.75 1014.05 1013.71 1013.63 1013.34 1013.18 1013.16 1012.64 1012.19
1013.23 1012.68 1012.08 1011.31 1010.34 1009.50 1008.48 1008.57 1008.09 1007.61 1007.55 1007.27 1006.84 1006.16 1007.50 1007.30 1007.22 1008.61 1009.81 1009.55 1010.07 1009.17 1010.21 1010.93 1011.52 1011.46 1011.81 1012.52 1012.75 1012.13 1012.59 1012.88 1013.61 1014.51 1014.95 1014.86 1014.11 1013.81 1013.73 1013.48 1013.61 1013.29 1012.59
1013.24 1012.87 1012.15 1011.47 1010.71 1009.82 1008.93 1008.74 1008.81 1008.36 1007.57 1008.53 1007.65 1007.36 1008.73 1008.61 1008.89 1009.47 1010.79 1010.55 1010.58 1011.67 1011.51 1011.90 1012.42 1013.06 1013.29 1013.53 1013.46 1013.35 1013.44 1013.92 1014.24 1014.98 1015.51 1015.16 1014.46 1014.30 1013.94 1013.82 1013.80 1013.71 1013.29
1013.60 1013.01 1012.27 1011.73 1011.11 1010.36 1009.46 1009.12 1009.16 1009.55 1009.45 1008.87 1008.33 1008.60 1008.65 1010.13 1009.14 1010.75 1011.59 1011.39 1012.17 1012.95 1012.67 1012.98 1013.65 1013.60 1013.94 1014.00 1014.09 1014.37 1014.31 1014.66 1015.19 1015.99 1015.43 1015.26 1014.78 1014.84 1014.60 1014.39 1014.47 1013.78 1013.69
1013.97 1013.45 1012.84 1011.98 1011.14 1010.40 1009.73 1009.47 1009.45 1009.87 1010.03 1009.92 1009.74 1009.62 1009.66 1010.06 1011.12 1011.17 1012.61 1013.00 1013.46 1013.35 1013.03 1014.24 1015.07 1014.61 1014.87 1015.45 1015.16 1014.86 1015.13 1015.78 1016.23 1016.38 1015.88 1015.60 1015.47 1015.05 1015.32 1014.91 1014.77 1014.28 1013.93
1013.92 1013.62 1013.01 1012.35 1011.36 1010.44 1009.57 1009.29 1009.75 1009.92 1010.19 1010.74 1011.01 1011.55 1011.45 1011.17 1012.49 1012.63 1013.25 1013.85 1013.78 1014.41 1014.07 1015.11 1015.61 1015.77 1015.72 1016.36 1015.71 1015.88 1016.27 1016.61 1016.77 1016.67 1016.12 1015.95 1015.34 1015.13 1015.39 1015.07 1014.78 1014.59 1014.06
1014.03 1013.72 1013.21 1012.65 1011.89 1010.52 1009.38 1009.46 1009.98 1010.40 1010.62 1011.02 1010.99 1011.75 1012.37 1012.31 1013.47 1014.02 1014.29 1014.88 1015.22 1014.51 1015.46 1016.02 1016.66 1017.12 1016.97 1017.27 1016.90 1015.93 1017.11 1016.89 1017.01 1016.78 1016.30 1016.13 1015.76 1015.37 1015.20 1014.92 1014.47 1013.92 1013.66
1013.94 1013.72 1013.42 1012.90 1012.29 1011.42 1010.74 1010.63 1010.92 1011.20 1011.51 1011.85 1012.35 1012.81 1013.15 1014.38 1014.46 1014.80 1015.06 1015.74 1016.29 1016.58 1016.67 1016.68 1017.30 1017.61 1017.87 1017.44 1017.03 1017.38 1017.17 1017.13 1017.03 1016.89 1016.51 1016.00 1015.49 1015.41 1015.52 1014.77 1014.23 1013.54 1013.14
1014.00 1013.92 1013.70 1013.32 1012.85 1012.55 1012.24 1012.20 1012.38 1012.81 1012.99 1013.30 1014.03 1014.44 1014.84 1015.46 1015.77 1016.12 1016.85 1017.30 1017.03 1017.26 1017.12 1018.20 1018.21 1017.86 1017.95 1018.43 1018.64 1018.09 1017.39 1017.37 1017.27 1016.86 1016.50 1016.48 1016.05 1016.04 1015.75 1014.90 1013.92 1013.23 1012.57
1013.98 1013.95 1013.77 1013.64 1013.46 1013.42 1013.25 1013.28 1013.87 1014.43 1014.88 1015.31 1015.73 1015.93 1016.53 1016.47 1017.15 1017.56 1017.91 1018.18 1018.51 1018.69 1018.42 1018.79 1018.82 1019.11 1019.01 1019.48 1019.11 1018.64 1018.15 1018.01 1017.54 1017.28 1016.87 1016.80 1016.94 1016.43 1015.76 1014.99 1013.87 1012.94 1012.11
1013.81 1014.15 1014.26 1014.31 1014.21 1014.35 1014.29 1014.50 1014.81 1015.52 1016.40 1016.62 1016.89 1017.20 1017.47 1018.06 1018.74 1018.98 1019.33 1019.71 1019.77 1019.26 1019.07 1019.30 1019.78 1020.23 1020.40 1019.79 1019.60 1019.53 1019.13 1018.86 1018.22 1017.72 1017.33 1017.10 1016.93 1016.43 1015.83 1015.13 1013.94 1013.16 1012.53
1013.95 1014.49 1014.74 1015.00 1015.07 1015.17 1015.48 1015.84 1015.94 1016.62 1016.97 1017.35 1017.88 1018.38 1018.66 1019.08 1019.59 1020.41 1020.70 1020.61 1020.62 1019.91 1019.93 1020.51 1020.70 1021.01 1021.03 1020.62 1020.09 1019.98 1020.01 1019.66 1018.96 1018.60 1018.27 1017.77 1017.15 1016.50 1015.54 1014.85 1014.49 1013.39 1012.41
1014.40 1014.95 1015.36 1015.85 1016.25 1016.40 1016.59 1016.72 1017.40 1017.63 1017.83 1018.05 1018.64 1019.24 1019.68 1020.41 1021.27 1021.35 1021.47 1021.43 1021.39 1021.28 1021.38 1021.32 1021.02 1021.56 1021.41 1021.01 1020.78 1020.51 1020.38 1020.01 1019.58 1019.38 1018.79 1017.90 1017.23 1016.37 1015.29 1014.80 1014.14 1013.32 1012.32
1015.06 1015.51 1016.16 1016.74 1017.24 1017.62 1017.95 1018.22 1018.59 1018.80 1018.97 1019.42 1019.91 1020.39 1021.08 1021.77 1022.10 1021.94 1022.23 1021.89 1021.78 1022.51 1022.43 1022.23 1022.16 1022.14 1021.72 1021.66 1021.42 1021.11 1020.70 1020.37 1019.86 1019.35 1018.41 1017.94 1017.14 1016.42 1015.85 1014.93 1013.99 1013.29 1012.34
1016.06 1016.66 1017.30 1017.73 1018.27 1018.65 1018.92 1019.50 1019.86 1019.98 1020.20 1020.56 1021.19 1021.66 1021.93 1022.22 1022.56 1022.74 1022.90 1022.75 1023.54 1023.79 1023.52 1023.39 1023.18 1022.98 1022.70 1022.63 1022.45 1022.09 1021.41 1020.82 1020.39 1019.43 1018.64 1017.88 1017.10 1016.48 1015.71 1014.78 1014.00 1013.60 1012.62
1017.03 1017.70 1018.50 1018.72 1019.44 1019.85 1020.10 1020.70 1020.87 1020.88 1020.96 1021.59 1022.23 1022.46 1022.65 1023.10 1023.48 1023.81 1023.68 1024.33 1024.47 1024.59 1024.63 1024.65 1024.27 1024.01 1023.69 1023.22 1022.73 1022.30 1021.87 1021.17 1020.53 1019.66 1019.13 1018.52 1017.85 1017.19 1016.39 1015.28 1014.60 1013.63 1012.93
Wind_Speed
17 15 14 14 12 12 16 19 18 21 14 13 13 13 16 15 13 13 17 16 13 13 13 9 9 8 9 12 11 10 11 8 8 6 7 9 11 14 10 11 11 11 12
20 18 17 17 16 15 15 15 19 20 18 14 14 12 12 12 12 11 15 18 16 12 10 9 7 8 7 10 11 12 9 8 7 5 4 4 4 7 8 8 8 10 9
20 21 20 16 17 18 16 16 17 18 19 20 11 9 7 9 10 14 14 15 17 15 14 13 12 12 10 9 11 13 13 9 5 11 4 2 5 4 4 6 7 9 7
22 21 22 21 19 18 16 15 15 15 15 17 15 18 15 15 13 11 11 12 18 17 16 16 15 12 10 13 13 11 8 7 8 4 8 7 5 5 11 4 5 6 7
20 23 24 24 18 15 16 14 11 11 12 14 18 14 16 12 6 7 12 14 16 19 18 16 9 12 10 13 12 10 9 7 6 6 3 8 7 8 6 7 10 7 6
23 24 25 24 23 18 17 17 14 10 8 12 16 16 14 10 8 9 9 10 11 12 15 13 12 11 11 9 6 5 4 4 5 5 4 4 3 5 5 6 9 10 11
22 23 26 24 24 22 20 18 18 12 5 6 11 11 10 10 11 11 9 11 9 7 10 9 8 7 8 8 7 8 8 7 6 5 3 4 5 4 4 3 5 8 3
21 23 24 22 21 21 21 20 18 12 7 6 5 4 6 5 5 6 4 6 10 10 12 8 10 10 10 11 10 8 7 8 7 7 6 4 5 5 5 4 4 5 7
20 24 25 22 22 20 16 15 16 12 12 13 13 13 11 11 10 13 11 11 12 11 20 13 14 13 13 10 13 10 9 9 8 8 8 6 6 5 6 5 4 4 4
21 21 20 22 20 20 14 13 12 13 11 14 13 14 15 15 14 14 15 13 10 10 17 14 10 11 14 15 13 9 11 11 8 7 8 8 6 6 5 6 6 5 3
18 19 19 19 19 19 15 11 11 10 9 10 10 15 14 15 15 14 12 11 10 15 15 14 10 14 15 14 12 12 12 12 11 10 9 7 7 5 6 6 5 5 5
17 18 19 18 17 19 14 8 6 10 9 8 11 16 13 14 17 17 14 13 14 17 15 14 14 15 15 14 12 13 11 12 11 9 7 8 6 7 8 6 7 6 5
17 18 19 19 19 18 15 6 7 3 9 7 11 15 12 13 15 15 11 11 16 13 15 15 16 14 13 13 12 12 12 12 10 8 6 8 9 10 8 8 8 7 7
17 18 19 19 18 18 15 5 3 4 4 8 10 10 14 10 15 13 11 12 15 13 14 16 15 14 14 13 11 10 9 9 9 6 7 8 10 10 10 8 9 8 9
16 18 19 19 20 19 17 5 3 1 3 8 10 13 13 15 11 14 13 13 13 13 16 15 14 15 14 10 10 11 11 9 7 7 8 8 11 13 9 6 9 9 8
16 18 20 22 22 22 19 6 5 7 9 9 12 10 12 15 11 12 12 12 14 13 16 14 14 15 13 17 17 11 9 8 8 7 8 8 9 10 8 10 10 9 9
15 16 19 19 21 22 17 6 7 9 10 11 13 11 11 13 11 11 12 11 11 14 14 13 14 15 16 20 16 14 9 8 8 9 9 8 8 11 12 12 11 10 10
14 15 16 17 18 16 11 5 7 8 10 12 13 12 13 11 12 12 13 13 12 13 11 14 13 14 14 22 22 11 9 9 9 9 10 11 11 10 14 14 14 13 11
12 11 12 14 14 10 10 10 10 10 11 12 12 12 13 12 12 14 11 9 12 11 13 13 13 15 16 24 22 13 10 10 11 11 11 13 13 20 23 17 16 15 13
11 11 12 11 11 7 9 12 13 13 13 13 13 14 14 14 13 12 11 11 10 10 10 14 15 19 14 22 24 20 10 11 10 11 12 14 16 23 23 17 15 15 15
10 9 8 8 8 5 9 13 14 14 11 13 14 14 14 13 12 10 8 9 10 12 13 14 13 14 15 15 23 23 12 11 10 10 10 10 22 24 22 21 14 16 17
8 6 5 5 6 7 9 12 14 10 12 14 14 14 14 11 10 11 11 11 10 12 13 11 10 10 12 19 21 22 20 18 11 10 11 12 22 22 22 17 23 23 16
3 3 3 5 8 8 9 12 9 10 13 15 14 14 14 13 11 10 10 9 11 11 10 9 9 9 10 11 20 20 19 18 11 10 13 18 18 18 15 21 22 17 11
2 3 7 7 9 9 10 10 9 11 13 14 14 13 12 12 11 9 10 10 11 10 10 9 9 9 10 11 12 12 11 15 12 14 11 12 13 13 13 13 12 11 11
6 7 7 9 10 10 12 11 10 11 13 13 13 12 10 11 12 12 9 11 13 12 10 9 9 10 10 11 16 15 11 11 13 11 10 10 11 12 12 12 13 12 12
8 10 9 11 12 13 13 12 11 12 13 12 10 9 9 8 8 8 10 19 17 20 20 19 14 9 16 19 21 22 21 20 18 9 9 11 11 12 13 13 14 13 15
Wind_Direction
342 340 340 337 312 282 257 239 231 227 210 204 202 204 213 215 217 218 211 206 201 201 207 210 207 214 226 234 227 228 232 229 229 259 259 262 252 253 249 255 260 260 255
352 354 350 341 330 314 293 272 245 232 215 209 210 214 216 219 222 212 213 203 194 192 186 194 203 209 227 235 226 217 217 228 207 233 259 284 265 242 233 238 245 253 254
348 345 343 337 333 328 319 292 272 247 222 216 206 211 224 227 211 212 209 206 191 189 184 192 201 193 195 232 232 228 217 224 192 210 207 213 256 314 245 235 242 249 241
350 345 340 336 332 324 315 296 282 270 232 205 205 203 208 215 221 213 206 198 188 188 197 204 202 193 208 210 228 227 212 198 223 200 219 238 254 262 304 278 292 264 265
360 355 349 341 335 328 327 311 302 280 260 214 210 207 217 222 213 202 188 189 192 196 200 209 207 193 215 219 214 213 207 202 221 209 184 226 237 243 246 279 290 292 271
355 358 356 353 352 344 338 331 320 303 256 239 209 212 215 212 184 181 189 193 196 194 200 201 202 202 204 214 218 209 199 203 215 231 234 231 218 252 236 260 265 281 293
358 359 357 354 348 346 342 337 332 313 304 228 207 211 205 195 197 195 191 195 195 185 179 175 140 117 108 93 91 79 75 62 69 50 40 33 40 9 331 284 290 280 303
3 360 355 351 349 343 348 342 342 344 4 87 103 127 169 186 190 198 142 70 62 49 25 70 88 82 84 86 90 88 73 60 55 48 43 40 32 14 1 338 334 290 278
358 356 351 351 352 347 345 346 348 7 38 48 62 54 58 67 72 71 72 73 77 82 54 337 69 66 75 78 75 71 72 66 53 40 38 41 25 21 358 348 339 322 298
354 349 350 344 344 345 345 351 359 11 33 73 72 72 61 59 63 63 65 72 88 107 93 59 33 68 68 62 64 71 65 64 51 46 40 37 23 21 16 1 349 343 327
344 343 344 341 339 343 346 1 4 20 31 51 75 88 83 79 67 67 65 64 76 77 71 88 60 57 61 64 66 65 61 62 56 46 38 35 34 26 21 17 5 5 346
340 339 340 336 343 342 338 351 6 32 24 47 78 81 70 83 88 80 69 79 64 71 77 78 72 67 61 56 61 65 59 58 55 42 34 27 24 33 21 18 4 1 349
340 341 341 342 339 342 334 358 336 24 112 33 84 94 90 82 81 86 92 73 81 78 86 84 76 73 73 73 62 60 65 61 64 52 38 32 29 26 13 11 356 348 337
340 339 341 339 337 333 329 312 4 2 94 121 94 85 90 81 96 83 71 84 88 84 73 71 73 70 61 54 54 67 62 58 56 41 41 33 37 26 16 2 345 343 330
339 336 337 334 335 331 328 264 174 340 45 82 93 98 96 89 76 89 83 78 74 78 73 69 62 62 57 44 46 56 51 39 33 23 26 22 18 16 0 352 343 337 329
336 336 335 338 333 329 318 238 153 120 109 89 80 76 85 84 83 87 93 96 86 79 78 74 65 56 57 45 49 47 56 42 32 14 15 8 13 7 334 336 323 309 314
327 334 334 338 333 328 317 215 142 117 109 108 110 103 80 81 85 81 84 76 76 79 72 75 74 60 56 46 47 47 40 39 22 14 7 359 358 353 348 334 312 310 294
322 331 334 335 335 348 6 74 93 93 95 97 90 85 85 79 87 84 79 77 74 74 79 70 73 65 52 40 31 21 38 30 14 357 357 352 352 354 339 332 320 315 308
310 320 327 330 334 360 31 51 60 62 70 74 72 71 77 81 73 68 69 70 76 70 71 65 56 57 46 35 28 17 27 14 359 352 357 350 346 353 337 326 318 313 307
312 325 330 338 343 11 75 75 68 63 61 64 71 71 69 69 68 68 65 65 65 73 73 66 53 44 42 32 26 19 18 4 355 348 350 349 341 333 330 326 311 308 309
318 331 340 350 4 49 92 90 90 80 78 76 75 74 77 70 60 65 68 60 70 70 64 60 52 44 35 31 25 22 14 3 350 350 345 336 335 333 333 328 313 324 322
334 0 3 26 43 79 95 95 90 96 94 87 81 75 70 69 66 63 59 63 60 65 58 54 51 35 26 24 20 16 12 3 353 346 335 328 332 333 336 337 332 328 313
348 67 25 71 58 71 94 99 89 93 92 89 85 81 76 69 67 70 71 64 56 52 55 46 41 28 22 20 16 10 4 1 352 345 331 332 332 336 335 335 329 329 328
358 50 104 88 74 66 72 73 77 84 83 84 82 77 81 85 76 74 65 59 55 46 43 40 37 25 22 15 10 4 359 354 353 341 339 336 335 338 330 329 331 332 328
84 89 97 96 86 81 76 69 75 84 85 82 83 83 83 81 77 67 56 63 60 50 47 38 33 22 19 14 10 9 4 358 356 336 348 349 350 343 340 338 335 331 330
113 102 96 89 80 77 74 71 73 78 81 84 80 75 78 76 76 80 74 60 60 60 54 46 38 28 22 14 11 10 6 5 3 2 360 351 348 343 338 336 331 331 328